Weather in Smederevo

Serbia     44°39′36″N   20°56′07″E
temp.,
°C
wind,
m/s
gust,
m/s
humid.,
%
clouds,
%
prec.,
mm/h
press.,
hPa
HPBL,
m
11 april, sun
sun1123:00+9se33605 0.0 102336
02:00+7se35675 0.0 102381
05:00+6se377066 0.0 1023109
08:00+9se59614 0.0 1023284
11:00+15se68455 0.0 1023910
14:00+19se673668 0.0 10211608
17:00+18ese5744100 0.0 10211049
20:00+13ese71348100 0.0 1022403
12 april, mon
mon1223:00+13ese81447100 0.0 1021404
02:00+12se61150100 0.0 1021385
05:00+11se6105499 0.0 1021287
08:00+11se6106061 0.0 1021344
11:00+17sse684710 0.0 1020803
14:00+21sse554168 0.0 10181209
17:00+21se354783 0.0 1016872
20:00+15ese51058100 0.0 1016181
13 april, tue
tue1323:00+13ese51061100 0.0 1016209
02:00+13se4768100 0.0 1016164
05:00+12se3769100 0.0 1016162
08:00+14sse476694 0.0 1015269
11:00+18se4548100 0.0 1014959
14:00+20s3437100 0.0 10132066
17:00+16n557095 0.4 1012436
20:00+11nnw5893100 1.9 1014360
14 april, wed
wed1423:00+7wnw6988100 0.9 1016587
02:00+4wnw71191100 1.2 1017572
05:00+3w51196100 2.1 1017739
08:00+3w71093100 2.9 1017857
11:00+3w71196100 0.2 1018824
14:00+4w61093100 0.3 1018900
17:00+6wnw697882 0.1 1017976
20:00+5w4888100 0.3 1018690
15 april, thu
thu1523:00+4w6108779 0.2 1019638
02:00+3w6108894 0.2 1019737
05:00+2w51197100 0.1 1020742
08:00+3w6109295 0.5 1021766
11:00+6wnw786895 0.4 10211352
14:00+7wnw695997 0.8 10211653
17:00+8wnw686082 0.3 10211396
20:00+4nw38725 0.3 1022145